N1ADJ Weather Reports


Display with metric or nautical units.
time (UTC)temp
F
wind
direction
speed
MPH
gust
MPH
rain 1hr
in
rain 24hr
in
rain mn
in
humidity
%
barometer
mb
20260506033058 54 203 3.0 7.0 0.00 0.00 0.00 85 1008.1
20260506032537 54 158 1.0 5.0 0.00 0.00 0.00 84 1007.9
20260506032019 55 113 1.0 4.0 0.00 0.00 0.00 84 1008.1
20260506031518 55 225 4.0 10.0 0.00 0.00 0.00 84 1008.1
20260506031038 55 203 5.0 12.0 0.00 0.00 0.00 84 1008.1
20260506030517 55 203 2.0 8.0 0.00 0.00 0.00 83 1008.1
20260506030017 55 225 4.0 7.0 0.00 0.00 0.00 83 1008.3
20260506025518 55 203 4.0 12.0 0.00 0.00 0.00 82 1007.9
20260506025037 55 180 3.0 12.0 0.00 0.00 0.00 82 1008.2
20260506024537 56 203 2.0 4.0 0.00 0.00 0.00 81 1008.2
20260506024017 56 180 2.0 5.0 0.00 0.00 0.00 80 1008.2
20260506023518 56 203 2.0 4.0 0.00 0.00 0.00 80 1008.3
20260506023017 57 203 2.0 6.0 0.00 0.00 0.00 80 1008.2
20260506022517 57 180 2.0 5.0 0.00 0.00 0.00 79 1008.3
20260506022017 57 158 2.0 9.0 0.00 0.00 0.00 79 1008.4
20260506021538 58 180 4.0 9.0 0.00 0.00 0.00 78 1008.3
20260506021017 58 225 3.0 8.0 0.00 0.00 0.00 78 1008.3
20260506020517 58 225 4.0 7.0 0.00 0.00 0.00 77 1008.5
20260506020017 58 225 6.0 15.0 0.00 0.00 0.00 77 1008.4
20260506015518 58 203 5.0 9.0 0.00 0.00 0.00 77 1008.5
20260506015017 58 203 4.0 7.0 0.00 0.00 0.00 77 1008.5
20260506014537 59 158 2.0 7.0 0.00 0.00 0.00 77 1008.3
20260506014018 59 225 3.0 7.0 0.00 0.00 0.00 76 1008.3
20260506013518 59 225 5.0 9.0 0.00 0.00 0.00 77 1008.4
20260506013017 59 225 3.0 7.0 0.00 0.00 0.00 77 1008.3
20260506012517 59 225 4.0 8.0 0.00 0.00 0.00 77 1008.4
20260506012037 59 225 5.0 9.0 0.00 0.00 0.00 76 1008.3
20260506011518 59 180 3.0 11.0 0.00 0.00 0.00 77 1008.2
20260506011017 59 203 3.0 7.0 0.00 0.00 0.00 76 1008.2
20260506010518 59 203 3.0 8.0 0.00 0.00 0.00 76 1008.1
20260506010017 59 225 3.0 5.0 0.00 0.00 0.00 77 1007.9
20260506005558 59 225 3.0 7.0 0.00 0.00 0.00 77 1008.2
20260506005017 60 225 5.0 9.0 0.00 0.00 0.00 77 1008.3
20260506004517 60 248 5.0 11.0 0.00 0.00 0.00 77 1008.3
20260506004017 60 225 4.0 8.0 0.00 0.00 0.00 77 1007.7
20260506003517 60 225 3.0 6.0 0.00 0.00 0.00 78 1007.6
20260506003017 59 203 4.0 7.0 0.00 0.00 0.00 79 1007.6
20260506002517 59 180 2.0 5.0 0.00 0.00 0.00 80 1007.2
20260506002118 59 180 1.0 3.0 0.00 0.00 0.00 79 1006.8
20260506001517 59 0.0 2.0 0.00 0.00 0.00 79 1006.6
20260506001017 59 113 1.0 3.0 0.00 0.00 0.00 79 1006.3
20260506000517 59 270 1.0 3.0 0.00 0.00 0.00 78 1006.5
20260506000017 59 90 3.0 5.0 0.00 0.00 0.00 78 1006.2
20260505235517 60 158 1.0 3.0 0.00 0.00 0.00 77 1006.7
20260505235017 60 203 2.0 7.0 0.00 0.00 0.00 77 1006.4
20260505234517 59 203 2.0 6.0 0.00 0.00 0.00 77 1006.9
20260505234017 59 203 4.0 9.0 0.00 0.00 0.00 77 1007.1
20260505233517 59 225 5.0 11.0 0.00 0.00 0.00 77 1006.9
20260505233018 59 203 5.0 10.0 0.00 0.00 0.00 77 1006.6
20260505232517 58 225 7.0 14.0 0.00 0.00 0.00 78 1006.7
20260505232017 58 225 9.0 17.0 0.00 0.00 0.00 80 1006.7
20260505231517 57 225 11.0 23.0 0.00 0.00 0.00 81 1006.9
20260505231017 56 248 15.0 29.0 0.00 0.00 0.00 84 1007.4
20260505230517 56 248 7.0 14.0 0.00 0.00 0.00 83 1005.5
20260505230017 57 248 7.0 13.0 0.00 0.00 0.00 82 1005.2
20260505225517 57 225 8.0 15.0 0.00 0.00 0.00 80 1005.2
20260505225018 57 225 9.0 16.0 0.00 0.00 0.00 80 1005.0
20260505224517 57 225 8.0 16.0 0.00 0.00 0.00 80 1005.0
20260505224018 57 225 12.0 23.0 0.00 0.00 0.00 80 1004.9
20260505223518 57 203 8.0 17.0 0.00 0.00 0.00 80 1004.9
20260505223038 57 225 12.0 24.0 0.00 0.00 0.00 80 1005.0
20260505222518 57 203 13.0 24.0 0.00 0.00 0.00 80 1004.9
20260505222017 57 203 10.0 18.0 0.00 0.00 0.00 80 1004.6
20260505221518 57 225 11.0 21.0 0.00 0.00 0.00 79 1004.6
20260505221017 57 203 11.0 18.0 0.00 0.00 0.00 78 1004.6
20260505220518 58 225 12.0 23.0 0.00 0.00 0.00 78 1004.6
20260505220017 58 225 13.0 25.0 0.00 0.00 0.00 78 1004.7
20260505215517 58 225 12.0 20.0 0.00 0.00 0.00 77 1004.8
20260505215018 58 225 10.0 18.0 0.00 0.00 0.00 77 1004.5
20260505214517 58 225 9.0 18.0 0.00 0.00 0.00 78 1004.6
20260505214017 58 225 9.0 20.0 0.00 0.00 0.00 78 1004.6
20260505213517 58 203 9.0 22.0 0.00 0.00 0.00 78 1004.6
20260505213017 58 225 7.0 16.0 0.00 0.00 0.00 78 1004.6
20260505212517 58 203 7.0 14.0 0.00 0.00 0.00 78 1004.4
20260505212018 58 225 7.0 17.0 0.00 0.00 0.00 78 1004.5
20260505211517 58 225 8.0 14.0 0.00 0.00 0.00 78 1004.6
20260505211028 59 225 7.0 15.0 0.00 0.00 0.00 78 1004.6
20260505210520 59 203 9.0 15.0 0.00 0.00 0.00 79 1004.7
20260505210017 59 225 8.0 14.0 0.00 0.00 0.00 79 1004.7
20260505205538 59 225 7.0 14.0 0.00 0.00 0.00 79 1004.6
20260505205019 59 225 10.0 16.0 0.00 0.00 0.00 77 1004.7
20260505204516 60 248 10.0 17.0 0.00 0.00 0.00 77 1004.5
20260505204020 60 225 8.0 16.0 0.00 0.00 0.00 75 1004.5
20260505203518 61 225 8.0 13.0 0.00 0.00 0.00 74 1004.5
20260505203017 61 225 9.0 21.0 0.00 0.00 0.00 74 1004.8
20260505202538 60 225 7.0 18.0 0.00 0.00 0.00 76 1004.7
20260505202017 60 225 8.0 18.0 0.00 0.00 0.00 77 1004.6
20260505201517 60 225 8.0 16.0 0.00 0.00 0.00 77 1004.8
20260505201017 60 225 9.0 16.0 0.00 0.00 0.00 77 1004.8
20260505200517 60 225 9.0 17.0 0.00 0.00 0.00 77 1004.9
20260505200058 60 225 8.0 17.0 0.00 0.00 0.00 77 1004.9
20260505195517 60 225 10.0 17.0 0.00 0.00 0.00 75 1005.1
20260505195017 62 248 7.0 16.0 0.00 0.00 0.00 76 1005.0
20260505194541 62 225 8.0 15.0 0.00 0.00 0.00 74 1005.0
20260505194018 61 225 7.0 13.0 0.00 0.00 0.00 75 1005.1
20260505193517 61 225 6.0 13.0 0.00 0.00 0.00 75 1005.1
20260505193018 61 225 7.0 14.0 0.00 0.00 0.00 77 1005.2
20260505192517 61 248 8.0 15.0 0.00 0.00 0.00 77 1005.3
20260505192017 60 225 8.0 13.0 0.00 0.00 0.00 78 1005.3
20260505191518 60 225 8.0 16.0 0.00 0.00 0.00 77 1005.7
20260505191017 61 270 10.0 14.0 0.00 0.00 0.00 78 1005.7
20260505190537 61 225 8.0 15.0 0.00 0.00 0.00 76 1005.6
20260505190037 60 225 9.0 13.0 0.00 0.00 0.00 78 1005.5
20260505185517 60 248 10.0 15.0 0.00 0.00 0.00 80 1005.7
20260505185017 60 248 10.0 13.0 0.00 0.00 0.00 78 1005.6
20260505184537 61 248 8.0 13.0 0.00 0.00 0.00 78 1005.7
20260505184018 61 203 8.0 16.0 0.00 0.00 0.00 78 1005.7
20260505183516 61 203 6.0 12.0 0.00 0.00 0.00 77 1005.7
20260505183016 60 248 7.0 15.0 0.00 0.00 0.00 80 1005.8
20260505182517 60 248 10.0 15.0 0.00 0.00 0.00 78 1006.1
20260505182016 61 248 8.0 16.0 0.00 0.00 0.00 77 1006.0
20260505181521 61 270 6.0 12.0 0.00 0.00 0.00 79 1006.0
20260505181017 61 270 6.0 10.0 0.00 0.00 0.00 77 1006.0
20260505180517 61 203 6.0 12.0 0.00 0.00 0.00 77 1006.0
20260505180016 63 248 7.0 12.0 0.00 0.00 0.00 73 1005.9
20260505175517 64 225 4.0 10.0 0.00 0.00 0.00 74 1006.0
20260505175017 64 225 5.0 10.0 0.00 0.00 0.00 70 1006.0
20260505174516 64 180 3.0 10.0 0.00 0.00 0.00 73 1006.2
20260505174017 64 225 6.0 12.0 0.00 0.00 0.00 72 1006.3
20260505173517 64 203 5.0 12.0 0.00 0.00 0.00 73 1006.4
20260505173018 63 270 5.0 9.0 0.00 0.00 0.00 74 1006.6
20260505172517 64 270 4.0 14.0 0.00 0.00 0.00 74 1006.8
20260505172017 64 225 3.0 11.0 0.00 0.00 0.00 75 1006.8
20260505171516 63 248 3.0 8.0 0.00 0.00 0.00 76 1006.9
20260505171017 63 248 5.0 10.0 0.00 0.00 0.00 76 1006.9
20260505170558 64 225 6.0 11.0 0.00 0.00 0.00 71 1006.9
20260505170017 64 225 3.0 6.0 0.00 0.00 0.00 73 1006.9
20260505165538 64 180 1.0 5.0 0.00 0.00 0.00 75 1006.9
20260505165016 63 203 5.0 12.0 0.00 0.00 0.00 75 1007.0
20260505164516 62 225 6.0 12.0 0.00 0.00 0.00 74 1007.1
20260505164022 61 225 9.0 14.0 0.00 0.00 0.00 76 1007.3
20260505163516 62 225 9.0 14.0 0.00 0.00 0.00 74 1007.3
20260505163016 62 225 4.0 7.0 0.00 0.00 0.00 77 1007.4
20260505162516 62 225 4.0 10.0 0.00 0.00 0.00 76 1007.5
20260505162037 62 203 7.0 14.0 0.00 0.00 0.00 74 1007.6
20260505161517 61 203 6.0 10.0 0.00 0.00 0.00 76 1007.4
20260505161016 61 203 4.0 9.0 0.00 0.00 0.00 78 1007.5
20260505160516 60 180 4.0 11.0 0.00 0.00 0.00 80 1007.8
20260505153036 58 225 5.0 14.0 0.00 0.00 0.00 82 1008.4
20260505152516 57 203 6.0 11.0 0.00 0.00 0.00 83 1008.7
20260505152016 57 203 5.0 13.0 0.00 0.00 0.00 82 1008.6
20260505151557 56 225 5.0 10.0 0.00 0.00 0.00 84 1008.9
20260505151036 56 225 7.0 12.0 0.00 0.00 0.00 82 1009.0
20260505150517 56 203 9.0 17.0 0.00 0.00 0.00 82 1008.7
20260505140521 57 203 4.0 9.0 0.00 0.00 0.00 82 1008.3
20260505125020 55 203 7.0 16.0 0.00 0.00 0.00 82 1008.2
20260505124518 54 203 9.0 17.0 0.00 0.00 0.00 82 1008.3
20260505124018 54 203 7.0 13.0 0.00 0.00 0.00 82 1008.2
20260505123519 55 225 7.0 14.0 0.00 0.00 0.00 82 1008.3
20260505123040 55 203 4.0 10.0 0.00 0.00 0.00 83 1008.2
20260505122518 54 248 3.0 12.0 0.00 0.00 0.00 84 1008.2
20260505122018 54 203 4.0 9.0 0.00 0.00 0.00 83 1008.3
20260505121519 54 225 3.0 9.0 0.00 0.00 0.00 83 1008.3
20260505121023 54 225 6.0 15.0 0.00 0.00 0.00 83 1008.4
20260505120519 54 203 6.0 15.0 0.00 0.00 0.00 83 1008.5
20260505120018 54 203 5.0 12.0 0.00 0.00 0.00 83 1008.6
20260505115519 53 225 5.0 13.0 0.00 0.00 0.00 84 1008.5
20260505115019 53 225 5.0 11.0 0.00 0.00 0.00 84 1008.5
20260505114518 53 225 4.0 6.0 0.00 0.00 0.00 84 1009.0
20260505114018 53 225 5.0 9.0 0.00 0.00 0.00 85 1008.7
20260505113518 52 225 5.0 13.0 0.00 0.00 0.00 85 1008.8
20260505113022 52 203 4.0 8.0 0.00 0.00 0.00 85 1008.5
20260505112521 52 225 3.0 7.0 0.00 0.00 0.00 85 1008.7
20260505112019 52 225 3.0 8.0 0.00 0.00 0.00 85 1008.6
20260505111519 52 203 3.0 8.0 0.00 0.00 0.00 86 1008.5
20260505111024 51 225 4.0 9.0 0.00 0.00 0.00 86 1008.4
20260505110518 51 225 4.0 9.0 0.00 0.00 0.00 86 1008.5
20260505102017 50 180 2.0 6.0 0.00 0.00 0.00 88 1008.1
20260505101539 50 225 2.0 4.0 0.00 0.00 0.00 88 1008.3
20260505101038 49 203 2.0 5.0 0.00 0.00 0.00 88 1008.2
20260505100519 49 248 2.0 5.0 0.00 0.00 0.00 88 1008.2
20260505100017 49 203 1.0 5.0 0.00 0.00 0.00 88 1008.0
20260505095519 49 225 1.0 4.0 0.00 0.00 0.00 89 1008.2
20260505095017 49 203 2.0 5.0 0.00 0.00 0.00 89 1008.1
20260505094520 48 203 2.0 4.0 0.00 0.00 0.00 90 1008.2
20260505094019 48 225 2.0 4.0 0.00 0.00 0.00 90 1008.2
20260505093519 48 180 1.0 4.0 0.00 0.00 0.00 89 1008.0
20260505093019 48 180 1.0 5.0 0.00 0.00 0.00 90 1008.2
20260505092518 48 158 1.0 6.0 0.00 0.00 0.00 90 1008.3
20260505092039 47 158 2.0 6.0 0.00 0.00 0.00 90 1008.2
20260505091538 47 203 2.0 6.0 0.00 0.00 0.00 90 1008.3
20260505091017 47 180 1.0 3.0 0.00 0.00 0.00 89 1008.3
20260505090517 47 180 1.0 4.0 0.00 0.00 0.00 88 1008.3
20260505090018 47 158 1.0 4.0 0.00 0.00 0.00 88 1008.3
20260505085518 47 158 1.0 2.0 0.00 0.00 0.00 88 1008.3
20260505085018 47 158 1.0 4.0 0.00 0.00 0.00 87 1008.4
20260505084517 48 0.0 1.0 0.00 0.00 0.00 86 1008.4
20260505084019 48 0.0 1.0 0.00 0.00 0.00 86 1008.5
20260505083518 48 0.0 2.0 0.00 0.00 0.00 86 1008.3
20260505083020 48 0.0 2.0 0.00 0.00 0.00 86 1008.4
20260505082520 48 180 1.0 2.0 0.00 0.00 0.00 86 1008.3
20260505082019 49 0.0 1.0 0.00 0.00 0.00 86 1008.5
20260505081523 49 203 2.0 4.0 0.00 0.00 0.00 87 1008.4
20260505081039 49 203 2.0 4.0 0.00 0.00 0.00 86 1008.5
20260505080518 49 0.0 3.0 0.00 0.00 0.00 86 1008.4
20260505080018 49 180 1.0 3.0 0.00 0.00 0.00 85 1008.4
20260505075518 49 203 1.0 3.0 0.00 0.00 0.00 85 1008.5
20260505075017 49 203 2.0 3.0 0.00 0.00 0.00 86 1008.4
20260505074519 49 203 2.0 4.0 0.00 0.00 0.00 85 1008.4
20260505074017 49 0.0 2.0 0.00 0.00 0.00 84 1008.4
20260505073538 49 0.0 1.0 0.00 0.00 0.00 84 1008.4
20260505073019 50 0.0 0.0 0.00 0.00 0.00 83 1008.4
20260505072538 50 180 1.0 5.0 0.00 0.00 0.00 83 1008.4
20260505072017 50 203 2.0 5.0 0.00 0.00 0.00 83 1008.3
20260505071523 50 203 1.0 4.0 0.00 0.00 0.00 83 1008.4
20260505071047 50 203 2.0 3.0 0.00 0.00 0.00 83 1008.5
20260505070517 50 203 3.0 5.0 0.00 0.00 0.00 83 1008.4
20260505070037 50 203 1.0 3.0 0.00 0.00 0.00 82 1008.2
20260505065518 50 203 1.0 3.0 0.00 0.00 0.00 81 1008.4
20260505065022 51 0.0 2.0 0.00 0.00 0.00 81 1008.4
20260505064518 51 0.0 2.0 0.00 0.00 0.00 80 1008.4
20260505064018 51 203 1.0 3.0 0.00 0.00 0.00 80 1008.4
20260505063517 51 203 1.0 2.0 0.00 0.00 0.00 80 1008.3
20260505063038 52 225 1.0 2.0 0.00 0.00 0.00 79 1008.3
20260505062518 52 225 1.0 3.0 0.00 0.00 0.00 79 1008.4
20260505062018 52 225 3.0 7.0 0.00 0.00 0.00 79 1008.5
20260505061537 52 203 2.0 5.0 0.00 0.00 0.00 79 1008.6
20260505061017 52 203 2.0 4.0 0.00 0.00 0.00 79 1008.4
20260505060518 52 203 1.0 3.0 0.00 0.00 0.00 78 1008.4
20260505060018 53 203 1.0 2.0 0.00 0.00 0.00 78 1008.3
20260505055517 53 225 4.0 8.0 0.00 0.00 0.00 78 1008.5
20260505055017 53 203 3.0 5.0 0.00 0.00 0.00 78 1008.5
20260505054517 53 203 3.0 6.0 0.00 0.00 0.00 78 1008.3
20260505054017 53 203 2.0 4.0 0.00 0.00 0.00 78 1008.4
20260505053517 53 203 3.0 7.0 0.00 0.00 0.00 78 1008.4
20260505053019 53 225 2.0 5.0 0.00 0.00 0.00 78 1008.3
20260505052524 53 180 2.0 7.0 0.00 0.00 0.00 78 1008.2
20260505052017 53 203 2.0 4.0 0.00 0.00 0.00 77 1008.3
20260505051517 53 203 2.0 4.0 0.00 0.00 0.00 77 1008.3
20260505051017 53 203 3.0 7.0 0.00 0.00 0.00 76 1008.1
20260505050518 54 225 2.0 6.0 0.00 0.00 0.00 76 1008.2
20260505041518 57 225 3.0 8.0 0.00 0.00 0.00 68 1007.5
20260505041017 57 203 5.0 10.0 0.00 0.00 0.00 68 1007.6
20260505040518 57 203 3.0 9.0 0.00 0.00 0.00 69 1007.5
20260505040017 57 203 4.0 12.0 0.00 0.00 0.00 68 1007.4
20260505035519 57 225 5.0 7.0 0.00 0.00 0.00 69 1007.4
20260505035018 57 225 5.0 11.0 0.00 0.00 0.00 70 1007.3
20260505034518 56 203 5.0 9.0 0.00 0.00 0.00 71 1007.4
20260505034038 56 225 5.0 9.0 0.00 0.00 0.00 72 1007.5
20260505033518 55 203 4.0 10.0 0.00 0.00 0.00 74 1007.5